Home > Weather > Mississauga > Past weeks

Flag for Canada Weather for the Past 2 Weeks in Mississauga, Ontario, Canada

Now
30 °F

Snow flurries. Mostly cloudy.


Feels Like: 23 °F
Forecast: 29 / 35 °F
Wind: 8 mph from West

Location: Toronto Pearson International Airport

Current Time: Feb 6, 2016 at 7:35:05 AM

Latest Report: Feb 6, 2016 at 7:00 AM


Visibility: 12 mi

Pressure: 30.20 "Hg

Humidity: 80%

Dew point: 25 °F

Location of MississaugaLocation

Historic Weather in Mississauga — Graph

°F

Mississauga Temperature Yesterday

Maximum temperature yesterday: 37 °F (at 1:00 PM)
Minimum temperature yesterday: 27 °F (at 6:00 AM)
Average temperature yesterday: 31 °F

High & Low Weather Summary for the Past Weeks

 TemperatureHumidityPressure
High61 °F (Feb 3, 2:00 PM)100% (Feb 3, 7:00 AM)30.38 "Hg (Feb 3, 7:00 AM)
Low10 °F (Jan 22, 6:00 AM)39% (Feb 3, 4:00 PM)29.44 "Hg (Jan 31, 11:00 PM)
Average32 °F70%29.94 "Hg
* Reported Jan 22 6:00 AM — Feb 6 6:00 AM, Mississauga, Weather by CustomWeather, © 2016

Note: Actual official high and low records may vary slightly from our data, if they occured in-between our weather recording intervals... More about our weather records

Advertising

Mississauga Weather History for the Previous 24 Hours

 ConditionsComfort  
Time TempWeatherWind HumidityBarometerVisibility
6:00 AM
Sat, Feb 6
30 °FSnow flurries. Mostly cloudy.5 mph80%30.20 "Hg15 mi
5:00 AM30 °FOvercast.5 mph75%30.19 "Hg15 mi
4:00 AM30 °FSnow flurries. Overcast.6 mph75%30.21 "Hg15 mi
3:00 AM30 °FOvercast.12 mph75%30.23 "Hg15 mi
2:00 AM30 °FOvercast.9 mph75%30.23 "Hg15 mi
1:00 AM30 °FPassing clouds.10 mph75%30.24 "Hg15 mi
12:00 AM30 °FPassing clouds.12 mph75%30.26 "Hg15 mi
11:00 PM
Fri, Feb 5
30 °FPassing clouds.12 mph69%30.28 "Hg15 mi
10:00 PM30 °FPassing clouds.7 mph69%30.29 "Hg15 mi
9:00 PM30 °FPartly cloudy.8 mph69%30.31 "Hg15 mi
8:00 PM32 °FPassing clouds.14 mph60%30.32 "Hg15 mi
7:00 PM32 °FPartly cloudy.9 mph60%30.33 "Hg15 mi
6:00 PM32 °FPartly cloudy.10 mph55%30.32 "Hg15 mi
5:00 PM34 °FPartly sunny.8 mph51%30.30 "Hg15 mi
4:00 PM34 °FPartly sunny.12 mph44%30.30 "Hg15 mi
3:00 PM34 °FPartly sunny.12 mph44%30.29 "Hg15 mi
2:00 PM34 °FPartly sunny.9 mph48%30.29 "Hg15 mi
1:00 PM37 °FPartly sunny.13 mph45%30.29 "Hg15 mi
12:00 PM32 °FPartly sunny.8 mph64%30.30 "Hg15 mi
11:00 AM32 °FPartly sunny.2 mph60%30.31 "Hg15 mi
10:00 AM32 °FPartly sunny.8 mph64%30.31 "Hg15 mi
9:00 AM28 °FPartly sunny.2 mph69%30.32 "Hg15 mi
8:00 AM28 °FPartly sunny.6 mph74%30.31 "Hg15 mi
7:00 AM27 °FPassing clouds.6 mph74%30.29 "Hg15 mi
Weather by CustomWeather, © 2016

See weather overviewHow to use our weather pages